SCP
0 0 0 0 0 0 0 0 0 0 0 0 -0 -0 0 -0 -0 0 0 0 0 -0 -0 0 0 0 0 0 0 0 0 0 0 0 0 0 0 -0 0 -0 0 1 1 0 1
0 0 0 0 0 0 0 0 0 0 0 -0 -0 -0 -0 -0 0 0 0 0 0 0 0 0 0 0 0 0 0 0 0 0 0 0 0 0 0 -0 -0 0 0 0 1 2 1
0 0 0 0 0 0 0 0 0 0 -0 -0 -0 -0 -0 -0 0 0 0 0 0 0 0 0 0 0 -0 -0 0 0 0 0 0 0 0 0 0 0 0 0 0 0 0 0 1
0 0 0 0 0 0 0 0 0 0 0 -0 -0 -0 -0 0 0 0 0 0 0 0 0 0 0 0 0 0 0 0 0 0 0 0 0 0 0 0 0 0 0 0 0 0 0
0 0 0 0 0 0 0 0 0 0 -0 -0 0 0 0 0 0 0 0 0 0 0 0 0 0 0 0 0 0 0 0 0 0 0 0 -0 0 0 0 0 0 0 0 0 0
0 0 0 0 0 0 0 0 0 -0 -0 -0 0 0 0 0 0 0 0 0 0 -0 0 0 0 0 0 0 0 0 0 -0 0 0 0 0 0 0 -0 0 0 0 0 0 0
0 0 0 0 0 0 0 0 -0 -0 -0 0 0 0 0 0 0 0 0 0 0 0 -0 -0 0 0 0 0 0 0 0 0 0 0 0 0 0 0 0 0 0 0 0 0 0
0 0 0 0 0 0 0 0 0 0 0 0 0 0 0 0 0 0 -0 0 0 0 0 0 0 0 0 0 0 0 0 0 0 0 0 0 0 0 0 0 0 0 0 0 0
0 0 0 0 0 0 0 0 0 0 0 0 0 0 0 0 0 0 0 0 -0 0 0 0 0 0 0 0 0 0 0 0 0 -0 0 0 0 0 0 0 0 -0 0 0 0
0 0 0 0 0 0 0 -0 0 0 0 0 0 0 0 0 0 0 0 0 0 0 0 0 0 0 0 0 0 0 0 0 0 0 0 -0 -0 0 0 0 0 -0 0 0 0
0 0 0 0 0 0 0 0 0 0 0 0 0 0 0 0 0 0 0 -0 0 0 0 0 0 0 0 0 0 0 0 0 0 0 0 0 -0 0 0 0 0 0 0 0 0
0 0 0 0 0 0 0 0 0 0 0 0 0 0 0 0 0 0 -0 0 0 0 0 0 0 0 0 0 0 0 0 0 0 0 0 0 -0 0 0 0 0 0 0 0 0
0 0 0 0 0 0 0 0 0 0 0 0 0 0 0 0 0 0 0 0 0 0 0 0 0 0 0 0 0 0 0 0 0 -0 0 0 0 0 0 0 0 0 0 0 0
0 0 0 0 0 0 0 0 0 0 0 0 0 -0 0 0 0 0 0 0 0 0 0 0 0 0 0 0 0 0 0 0 0 0 0 0 0 0 0 0 0 0 0 0 0
0 0 0 0 0 0 0 0 0 0 0 0 0 -0 -0 0 0 0 0 0 0 0 0 0 -0 0 0 0 0 0 0 0 0 0 0 0 0 0 0 0 0 -0 0 0 0
0 0 0 0 0 0 0 0 0 0 0 0 0 0 0 0 0 0 0 0 0 0 0 0 0 0 0 0 0 0 0 0 -0 -0 0 0 0 -0 -0 -0 0 -0 -0 -0 0
0 0 0 0 0 0 0 0 0 0 0 0 0 0 0 0 0 0 0 0 0 0 0 0 0 0 0 0 0 0 0 0 -0 -0 0 0 -0 0 0 -0 -0 -0 0 -0 0
0 0 0 0 0 0 0 0 0 0 0 0 0 0 0 0 0 0 0 0 0 0 0 0 0 0 0 0 0 0 0 0 0 0 -0 -0 0 0 -0 -0 -0 -0 -0 -0 0
0 0 0 0 0 0 0 0 0 0 0 0 0 0 0 0 0 0 0 0 0 0 0 0 0 0 0 0 0 0 0 0 -0 -0 -0 0 0 -0 -0 -0 -0 -0 -0 -0 -0
0 0 0 0 0 0 0 0 0 0 0 0 0 0 0 0 0 0 0 0 0 0 0 0 0 0 0 0 0 0 0 0 0 0 0 -0 -0 -0 0 -0 -0 -0 -0 -0 -0
0 0 0 0 0 0 0 0 0 0 0 0 0 0 0 0 0 0 0 0 0 0 0 0 0 0 0 0 0 0 0 0 0 0 0 -0 -0 -0 0 0 0 0 0 0 0
0 0 0 0 0 0 0 0 0 0 0 0 0 0 0 0 0 0 0 0 0 0 0 0 0 0 0 0 0 0 0 0 0 0 0 0 0 0 -0 0 0 0 0 0 0
0 0 0 0 0 0 0 0 0 0 0 0 0 0 0 0 0 0 0 0 0 0 0 0 0 0 0 0 0 0 0 0 0 0 0 0 0 0 0 0 0 0 0 0 0
0 0 0 0 0 0 0 0 0 0 0 0 0 0 0 0 0 0 0 0 0 0 0 0 0 0 0 0 0 0 0 0 0 0 0 0 0 0 0 0 0 0 0 0 0
0 0 0 0 0 0 0 0 0 0 0 0 0 0 0 0 0 0 0 0 0 0 0 0 0 0 0 0 0 0 0 0 0 0 0 0 0 0 0 0 0 0 0 0 0
0 0 0 0 0 0 0 0 0 0 0 0 0 0 0 0 0 0 0 0 0 0 0 0 0 0 0 0 0 0 0 0 0 0 0 0 0 0 0 0 0 0 0 0 0
0 0 0 0 0 0 0 0 0 0 0 0 0 0 0 0 0 0 0 0 0 0 0 0 0 0 0 0 0 0 0 0 0 0 0 0 0 0 0 0 0 0 0 0 0
Wind_Speed_500mb
12 14 16 17 16 18 19 19 19 19 22 24 26 27 23 20 11 22 38 40 34 33 32 31 24 27 12 6 6 6 4 8 9 11 13 33 20 32 39 30 25 24 9 28 58
12 14 15 16 16 18 20 21 21 21 22 24 27 24 20 15 8 17 40 39 33 32 29 34 36 34 12 13 5 8 6 8 12 19 21 33 25 31 25 41 15 33 12 35 49
12 13 15 16 16 18 20 22 22 21 22 25 24 18 16 7 11 18 34 34 28 30 33 27 24 27 15 14 11 6 8 10 35 33 31 30 36 37 34 9 32 31 39 26 24
13 13 15 17 17 18 20 22 22 22 23 24 20 15 12 10 6 23 31 29 24 28 24 35 22 16 9 9 20 11 16 25 27 42 29 19 39 42 25 17 51 42 41 27 35
13 15 16 18 18 19 20 21 22 22 23 20 15 12 8 8 10 24 27 28 23 13 21 26 14 9 7 10 22 4 13 30 35 43 36 29 23 23 48 45 41 43 30 17 37
12 14 15 17 19 20 21 21 21 20 20 15 11 10 11 6 13 20 27 29 24 19 14 16 8 7 5 4 5 18 39 47 46 40 33 19 19 27 29 35 35 32 25 5 28
12 15 16 19 18 20 20 20 20 20 14 12 7 5 14 8 15 20 26 21 26 23 10 17 7 6 8 9 16 29 18 28 29 19 8 12 12 9 52 45 27 24 21 9 26
12 15 16 18 18 20 20 20 20 14 10 8 6 8 7 10 13 23 19 15 12 15 21 19 12 9 11 9 14 8 8 12 10 8 9 8 13 24 65 18 28 10 9 13 18
13 15 17 18 18 18 19 17 13 7 8 6 6 8 6 6 17 22 24 14 8 17 20 18 15 5 4 5 3 7 3 14 11 15 6 5 15 41 44 41 30 7 13 20 20
12 14 16 17 18 17 16 13 7 7 6 5 9 2 5 12 17 14 28 10 8 16 8 8 8 4 4 11 14 14 6 9 10 19 28 22 24 29 44 49 38 12 20 28 26
12 12 14 15 16 16 12 6 4 2 10 5 5 6 8 14 8 19 24 7 11 5 3 8 6 8 14 18 3 7 8 14 9 3 18 19 33 35 48 64 57 28 34 35 37
10 11 11 12 12 11 10 6 6 2 4 5 5 8 12 14 5 17 18 5 6 5 12 9 3 18 5 25 15 10 9 6 9 12 16 31 36 28 43 46 45 37 42 35 33
8 9 8 7 7 6 8 9 7 4 2 3 6 5 6 8 4 16 21 5 4 10 10 1 8 24 2 17 31 15 4 3 5 6 7 6 21 35 24 41 35 43 37 31 40
9 7 5 5 2 3 5 8 5 4 8 9 5 6 9 8 3 14 16 7 3 5 9 8 9 13 15 10 9 7 11 12 11 3 5 3 6 22 21 15 24 32 43 42 33
9 5 3 2 2 1 3 3 3 3 8 6 4 8 9 4 9 9 16 7 3 6 5 8 14 14 7 8 4 9 20 9 10 12 6 16 10 12 3 16 20 30 31 37 48
8 6 5 4 2 1 2 1 2 11 6 6 5 10 6 7 4 12 5 7 3 6 5 7 2 4 5 21 13 16 9 14 1 6 11 13 7 18 16 16 19 35 37 42 43
11 9 7 6 2 2 2 2 10 10 9 8 1 6 4 7 8 9 6 11 6 8 9 12 2 8 8 10 9 17 8 5 8 10 1 6 17 2 9 12 22 24 32 42 42
13 12 9 7 6 4 3 9 8 6 10 4 1 2 4 7 2 8 5 5 11 7 6 4 11 9 10 3 7 9 5 6 6 4 1 12 5 3 8 25 29 34 35 36 40
18 15 12 11 9 5 3 7 13 12 8 11 3 8 8 1 1 6 5 5 3 8 8 5 9 8 1 3 1 13 9 5 7 6 8 5 4 5 9 12 26 30 36 37 36
22 14 11 16 13 10 8 9 4 4 4 4 8 5 7 5 3 4 5 5 2 2 2 6 6 6 8 9 4 3 8 7 6 5 3 5 9 9 10 10 10 18 26 30 31
26 9 14 22 18 5 7 12 4 8 2 6 9 5 5 7 7 3 6 2 1 4 8 3 7 11 8 8 3 11 7 5 4 6 7 7 6 11 15 13 14 18 23 25 31
24 4 20 31 7 3 5 8 4 6 6 3 4 5 10 10 6 3 5 1 4 1 0 2 5 3 3 6 5 1 7 3 7 6 1 5 7 8 16 29 29 24 27 26 27
23 9 28 38 7 4 3 5 4 8 9 8 6 4 3 9 2 8 6 2 1 1 6 2 4 5 12 10 6 3 5 5 0 4 4 7 7 7 25 28 31 32 27 26 29
24 6 8 23 6 12 9 8 5 13 4 8 7 8 6 1 7 9 8 6 6 1 2 1 3 6 9 4 2 5 5 7 4 4 4 9 12 12 14 16 31 31 27 26 26
26 11 18 9 11 11 12 12 9 8 9 16 3 12 12 5 1 6 4 6 5 5 3 7 7 1 6 2 2 6 8 13 7 10 8 6 18 26 23 20 41 39 33 28 23
30 16 17 18 16 24 15 13 20 8 16 10 10 13 14 12 13 15 11 8 9 7 8 1 3 4 8 9 6 9 15 14 13 10 12 9 12 14 44 44 43 46 40 32 24
39 33 14 25 16 11 12 14 20 22 22 15 25 13 15 12 17 12 13 10 15 14 9 7 9 5 9 7 10 12 17 20 11 11 12 13 11 26 17 40 50 46 39 34 27
Wind_Direction_500mb
340 349 350 352 353 352 355 354 352 355 356 355 355 355 358 12 76 28 12 3 356 354 1 355 0 8 83 47 8 360 34 248 299 22 327 345 342 338 333 320 337 2 219 214 168
335 341 341 345 347 348 349 349 348 352 353 352 349 353 359 19 86 21 0 357 356 357 7 9 8 4 25 14 7 132 189 241 326 329 327 328 324 340 343 327 44 42 14 157 166
328 333 334 337 342 343 344 344 346 350 351 348 349 357 2 52 75 1 352 358 4 23 31 8 3 7 9 352 0 304 234 303 299 313 333 316 316 340 345 327 14 350 344 355 195
320 322 329 332 337 336 340 340 340 347 348 348 355 4 25 42 69 346 352 4 16 24 8 360 7 351 359 1 347 345 325 318 312 315 326 309 320 323 309 290 317 315 326 315 199
315 320 329 327 330 331 334 335 338 344 344 349 359 9 72 61 36 352 354 5 7 36 13 360 7 0 25 345 336 278 304 324 314 318 317 302 308 303 300 312 326 320 322 300 194
306 317 319 320 326 328 330 335 336 340 341 350 360 21 90 83 360 359 359 11 16 36 44 344 321 317 139 40 343 303 307 302 295 287 291 301 308 317 293 299 325 332 341 155 178
309 312 318 321 326 324 332 333 335 337 345 360 13 85 83 43 0 3 353 24 26 29 33 340 358 37 19 356 320 299 296 293 275 250 245 337 312 275 320 283 296 328 14 163 170
305 309 316 320 326 328 334 335 338 345 1 16 30 115 83 9 359 4 4 25 5 14 14 340 359 320 21 322 322 324 322 330 304 161 237 114 295 3 350 333 292 26 354 116 106
303 310 318 324 329 331 335 338 343 9 10 51 56 73 86 357 342 357 6 4 11 0 328 329 302 274 312 11 348 44 327 344 348 46 26 52 338 346 354 56 29 49 49 49 74
302 316 323 330 333 337 339 341 14 59 50 110 46 14 50 331 321 358 356 351 351 343 316 269 246 306 280 33 13 356 14 24 23 357 39 38 17 359 18 39 16 93 84 69 70
307 321 331 336 338 343 351 353 26 48 40 32 344 324 333 3 46 10 355 348 343 323 358 172 22 320 355 92 166 4 74 55 9 56 76 58 51 19 11 24 12 29 76 74 65
313 323 337 340 342 355 5 55 48 339 360 358 316 348 341 12 10 340 4 30 8 335 20 17 329 319 33 111 104 80 86 1 60 31 86 63 51 35 21 9 3 31 39 62 71
303 319 330 335 343 360 41 52 36 68 103 15 346 332 356 20 20 341 4 30 356 21 5 165 278 329 9 101 75 52 88 170 163 287 282 299 34 24 12 21 34 31 41 55 64
283 307 320 319 318 35 36 30 55 46 78 340 20 348 358 12 38 355 5 35 284 47 339 268 346 358 323 99 136 133 240 172 169 220 24 92 71 26 360 352 32 16 29 47 62
273 284 271 279 248 26 350 23 358 113 32 311 333 327 7 29 320 356 19 36 44 316 74 273 341 360 336 342 326 200 192 188 139 81 31 3 83 346 117 34 27 41 35 42 61
260 240 233 243 236 247 315 316 107 42 263 348 323 340 331 24 23 343 30 24 353 356 298 274 294 122 240 295 244 280 204 201 343 110 43 336 91 8 21 19 22 28 33 38 51
238 212 210 230 200 230 246 270 41 118 354 293 289 5 335 351 353 18 69 18 71 60 352 327 354 350 0 341 336 4 52 23 357 33 102 311 61 334 27 56 55 47 38 43 52
219 206 200 200 220 204 265 50 90 236 212 215 222 258 96 359 329 9 74 32 23 46 76 80 343 8 352 87 257 309 81 139 155 107 172 14 71 289 101 79 67 64 59 55 56
207 203 198 183 192 200 308 58 201 196 172 152 101 75 330 21 31 19 96 156 71 29 140 88 287 328 62 234 61 331 47 170 106 48 81 134 40 24 107 75 61 55 55 51 51
198 194 190 184 174 171 78 251 192 219 136 151 148 140 172 265 45 58 150 275 153 89 33 166 343 287 302 0 312 302 286 64 359 84 52 204 175 195 167 132 81 63 65 63 56
183 184 189 175 166 184 159 221 228 210 191 150 188 131 188 189 161 246 196 279 65 309 318 173 126 292 40 15 340 347 346 34 123 143 150 158 239 197 163 149 129 105 83 72 70
176 155 174 166 127 24 161 189 149 178 204 171 91 136 173 166 155 226 198 206 143 269 143 340 111 283 227 199 179 136 292 305 119 263 304 138 244 143 135 137 129 118 108 94 84
169 137 171 176 159 226 337 321 222 161 205 173 185 172 186 178 130 163 195 195 157 44 187 305 299 33 345 357 347 292 249 285 206 78 232 127 244 167 131 135 139 130 120 111 106
162 128 155 199 228 139 138 241 240 208 244 180 165 129 91 210 6 183 167 185 202 154 183 348 159 185 191 197 171 297 256 249 164 108 225 205 162 199 170 149 144 138 130 123 113
179 196 181 185 235 178 165 153 149 184 217 201 292 193 163 132 79 239 272 134 195 206 189 121 174 334 283 265 300 240 263 287 252 234 178 230 177 193 181 171 159 149 143 138 128
169 166 173 165 152 155 181 214 178 159 157 228 205 203 183 163 187 195 151 186 196 179 179 99 235 90 302 334 353 271 264 258 260 269 267 212 236 162 175 163 160 158 156 150 144
184 186 182 166 145 135 207 193 194 151 214 196 197 135 197 204 128 102 136 129 169 155 162 135 126 87 269 337 316 331 229 203 189 208 182 206 206 149 155 162 166 163 164 160 157
Wind_Speed_850mb
12 14 16 17 16 18 19 19 19 19 22 24 26 27 23 20 11 22 38 40 34 33 32 31 24 27 12 6 6 6 4 8 9 11 13 33 20 32 39 30 25 24 9 28 58
12 14 15 16 16 18 20 21 21 21 22 24 27 24 20 15 8 17 40 39 33 32 29 34 36 34 12 13 5 8 6 8 12 19 21 33 25 31 25 41 15 33 12 35 49
12 13 15 16 16 18 20 22 22 21 22 25 24 18 16 7 11 18 34 34 28 30 33 27 24 27 15 14 11 6 8 10 35 33 31 30 36 37 34 9 32 31 39 26 24
13 13 15 17 17 18 20 22 22 22 23 24 20 15 12 10 6 23 31 29 24 28 24 35 22 16 9 9 20 11 16 25 27 42 29 19 39 42 25 17 51 42 41 27 35
13 15 16 18 18 19 20 21 22 22 23 20 15 12 8 8 10 24 27 28 23 13 21 26 14 9 7 10 22 4 13 30 35 43 36 29 23 23 48 45 41 43 30 17 37
12 14 15 17 19 20 21 21 21 20 20 15 11 10 11 6 13 20 27 29 24 19 14 16 8 7 5 4 5 18 39 47 46 40 33 19 19 27 29 35 35 32 25 5 28
12 15 16 19 18 20 20 20 20 20 14 12 7 5 14 8 15 20 26 21 26 23 10 17 7 6 8 9 16 29 18 28 29 19 8 12 12 9 52 45 27 24 21 9 26
12 15 16 18 18 20 20 20 20 14 10 8 6 8 7 10 13 23 19 15 12 15 21 19 12 9 11 9 14 8 8 12 10 8 9 8 13 24 65 18 28 10 9 13 18
13 15 17 18 18 18 19 17 13 7 8 6 6 8 6 6 17 22 24 14 8 17 20 18 15 5 4 5 3 7 3 14 11 15 6 5 15 41 44 41 30 7 13 20 20
12 14 16 17 18 17 16 13 7 7 6 5 9 2 5 12 17 14 28 10 8 16 8 8 8 4 4 11 14 14 6 9 10 19 28 22 24 29 44 49 38 12 20 28 26
12 12 14 15 16 16 12 6 4 2 10 5 5 6 8 14 8 19 24 7 11 5 3 8 6 8 14 18 3 7 8 14 9 3 18 19 33 35 48 64 57 28 34 35 37
10 11 11 12 12 11 10 6 6 2 4 5 5 8 12 14 5 17 18 5 6 5 12 9 3 18 5 25 15 10 9 6 9 12 16 31 36 28 43 46 45 37 42 35 33
8 9 8 7 7 6 8 9 7 4 2 3 6 5 6 8 4 16 21 5 4 10 10 1 8 24 2 17 31 15 4 3 5 6 7 6 21 35 24 41 35 43 37 31 40
9 7 5 5 2 3 5 8 5 4 8 9 5 6 9 8 3 14 16 7 3 5 9 8 9 13 15 10 9 7 11 12 11 3 5 3 6 22 21 15 24 32 43 42 33
9 5 3 2 2 1 3 3 3 3 8 6 4 8 9 4 9 9 16 7 3 6 5 8 14 14 7 8 4 9 20 9 10 12 6 16 10 12 3 16 20 30 31 37 48
8 6 5 4 2 1 2 1 2 11 6 6 5 10 6 7 4 12 5 7 3 6 5 7 2 4 5 21 13 16 9 14 1 6 11 13 7 18 16 16 19 35 37 42 43
11 9 7 6 2 2 2 2 10 10 9 8 1 6 4 7 8 9 6 11 6 8 9 12 2 8 8 10 9 17 8 5 8 10 1 6 17 2 9 12 22 24 32 42 42
13 12 9 7 6 4 3 9 8 6 10 4 1 2 4 7 2 8 5 5 11 7 6 4 11 9 10 3 7 9 5 6 6 4 1 12 5 3 8 25 29 34 35 36 40
18 15 12 11 9 5 3 7 13 12 8 11 3 8 8 1 1 6 5 5 3 8 8 5 9 8 1 3 1 13 9 5 7 6 8 5 4 5 9 12 26 30 36 37 36
22 14 11 16 13 10 8 9 4 4 4 4 8 5 7 5 3 4 5 5 2 2 2 6 6 6 8 9 4 3 8 7 6 5 3 5 9 9 10 10 10 18 26 30 31
26 9 14 22 18 5 7 12 4 8 2 6 9 5 5 7 7 3 6 2 1 4 8 3 7 11 8 8 3 11 7 5 4 6 7 7 6 11 15 13 14 18 23 25 31
24 4 20 31 7 3 5 8 4 6 6 3 4 5 10 10 6 3 5 1 4 1 0 2 5 3 3 6 5 1 7 3 7 6 1 5 7 8 16 29 29 24 27 26 27
23 9 28 38 7 4 3 5 4 8 9 8 6 4 3 9 2 8 6 2 1 1 6 2 4 5 12 10 6 3 5 5 0 4 4 7 7 7 25 28 31 32 27 26 29
24 6 8 23 6 12 9 8 5 13 4 8 7 8 6 1 7 9 8 6 6 1 2 1 3 6 9 4 2 5 5 7 4 4 4 9 12 12 14 16 31 31 27 26 26
26 11 18 9 11 11 12 12 9 8 9 16 3 12 12 5 1 6 4 6 5 5 3 7 7 1 6 2 2 6 8 13 7 10 8 6 18 26 23 20 41 39 33 28 23
30 16 17 18 16 24 15 13 20 8 16 10 10 13 14 12 13 15 11 8 9 7 8 1 3 4 8 9 6 9 15 14 13 10 12 9 12 14 44 44 43 46 40 32 24
39 33 14 25 16 11 12 14 20 22 22 15 25 13 15 12 17 12 13 10 15 14 9 7 9 5 9 7 10 12 17 20 11 11 12 13 11 26 17 40 50 46 39 34 27
Wind_Direction_850mb
340 349 350 352 353 352 355 354 352 355 356 355 355 355 358 12 76 28 12 3 356 354 1 355 0 8 83 47 8 360 34 248 299 22 327 345 342 338 333 320 337 2 219 214 168
335 341 341 345 347 348 349 349 348 352 353 352 349 353 359 19 86 21 0 357 356 357 7 9 8 4 25 14 7 132 189 241 326 329 327 328 324 340 343 327 44 42 14 157 166
328 333 334 337 342 343 344 344 346 350 351 348 349 357 2 52 75 1 352 358 4 23 31 8 3 7 9 352 0 304 234 303 299 313 333 316 316 340 345 327 14 350 344 355 195
320 322 329 332 337 336 340 340 340 347 348 348 355 4 25 42 69 346 352 4 16 24 8 360 7 351 359 1 347 345 325 318 312 315 326 309 320 323 309 290 317 315 326 315 199
315 320 329 327 330 331 334 335 338 344 344 349 359 9 72 61 36 352 354 5 7 36 13 360 7 0 25 345 336 278 304 324 314 318 317 302 308 303 300 312 326 320 322 300 194
306 317 319 320 326 328 330 335 336 340 341 350 360 21 90 83 360 359 359 11 16 36 44 344 321 317 139 40 343 303 307 302 295 287 291 301 308 317 293 299 325 332 341 155 178
309 312 318 321 326 324 332 333 335 337 345 360 13 85 83 43 0 3 353 24 26 29 33 340 358 37 19 356 320 299 296 293 275 250 245 337 312 275 320 283 296 328 14 163 170
305 309 316 320 326 328 334 335 338 345 1 16 30 115 83 9 359 4 4 25 5 14 14 340 359 320 21 322 322 324 322 330 304 161 237 114 295 3 350 333 292 26 354 116 106
303 310 318 324 329 331 335 338 343 9 10 51 56 73 86 357 342 357 6 4 11 0 328 329 302 274 312 11 348 44 327 344 348 46 26 52 338 346 354 56 29 49 49 49 74
302 316 323 330 333 337 339 341 14 59 50 110 46 14 50 331 321 358 356 351 351 343 316 269 246 306 280 33 13 356 14 24 23 357 39 38 17 359 18 39 16 93 84 69 70
307 321 331 336 338 343 351 353 26 48 40 32 344 324 333 3 46 10 355 348 343 323 358 172 22 320 355 92 166 4 74 55 9 56 76 58 51 19 11 24 12 29 76 74 65
313 323 337 340 342 355 5 55 48 339 360 358 316 348 341 12 10 340 4 30 8 335 20 17 329 319 33 111 104 80 86 1 60 31 86 63 51 35 21 9 3 31 39 62 71
303 319 330 335 343 360 41 52 36 68 103 15 346 332 356 20 20 341 4 30 356 21 5 165 278 329 9 101 75 52 88 170 163 287 282 299 34 24 12 21 34 31 41 55 64
283 307 320 319 318 35 36 30 55 46 78 340 20 348 358 12 38 355 5 35 284 47 339 268 346 358 323 99 136 133 240 172 169 220 24 92 71 26 360 352 32 16 29 47 62
273 284 271 279 248 26 350 23 358 113 32 311 333 327 7 29 320 356 19 36 44 316 74 273 341 360 336 342 326 200 192 188 139 81 31 3 83 346 117 34 27 41 35 42 61
260 240 233 243 236 247 315 316 107 42 263 348 323 340 331 24 23 343 30 24 353 356 298 274 294 122 240 295 244 280 204 201 343 110 43 336 91 8 21 19 22 28 33 38 51
238 212 210 230 200 230 246 270 41 118 354 293 289 5 335 351 353 18 69 18 71 60 352 327 354 350 0 341 336 4 52 23 357 33 102 311 61 334 27 56 55 47 38 43 52
219 206 200 200 220 204 265 50 90 236 212 215 222 258 96 359 329 9 74 32 23 46 76 80 343 8 352 87 257 309 81 139 155 107 172 14 71 289 101 79 67 64 59 55 56
207 203 198 183 192 200 308 58 201 196 172 152 101 75 330 21 31 19 96 156 71 29 140 88 287 328 62 234 61 331 47 170 106 48 81 134 40 24 107 75 61 55 55 51 51
198 194 190 184 174 171 78 251 192 219 136 151 148 140 172 265 45 58 150 275 153 89 33 166 343 287 302 0 312 302 286 64 359 84 52 204 175 195 167 132 81 63 65 63 56
183 184 189 175 166 184 159 221 228 210 191 150 188 131 188 189 161 246 196 279 65 309 318 173 126 292 40 15 340 347 346 34 123 143 150 158 239 197 163 149 129 105 83 72 70
176 155 174 166 127 24 161 189 149 178 204 171 91 136 173 166 155 226 198 206 143 269 143 340 111 283 227 199 179 136 292 305 119 263 304 138 244 143 135 137 129 118 108 94 84
169 137 171 176 159 226 337 321 222 161 205 173 185 172 186 178 130 163 195 195 157 44 187 305 299 33 345 357 347 292 249 285 206 78 232 127 244 167 131 135 139 130 120 111 106
162 128 155 199 228 139 138 241 240 208 244 180 165 129 91 210 6 183 167 185 202 154 183 348 159 185 191 197 171 297 256 249 164 108 225 205 162 199 170 149 144 138 130 123 113
179 196 181 185 235 178 165 153 149 184 217 201 292 193 163 132 79 239 272 134 195 206 189 121 174 334 283 265 300 240 263 287 252 234 178 230 177 193 181 171 159 149 143 138 128
169 166 173 165 152 155 181 214 178 159 157 228 205 203 183 163 187 195 151 186 196 179 179 99 235 90 302 334 353 271 264 258 260 269 267 212 236 162 175 163 160 158 156 150 144
184 186 182 166 145 135 207 193 194 151 214 196 197 135 197 204 128 102 136 129 169 155 162 135 126 87 269 337 316 331 229 203 189 208 182 206 206 149 155 162 166 163 164 160 157